Location: Unspecified
(0.0000°N, 0.0000°E)
Time: 19:31:59
(UTC+01:00)

Iridium 12 - Visible Passes

Search period start: 22 December 2014 00:00
Search period end: 01 January 2015 00:00
Orbit: 776 x 779 km, 86.4° (Epoch: 21 December)

Date Brightness Start Highest point End Pass type
(mag) Time Alt. Az. Time Alt. Az. Time Alt. Az.
22 Dec 8.5 06:30:15 10° ENE 06:33:06 15° E 06:35:58 10° SE visible
23 Dec 7.9 20:09:31 10° SW 20:13:36 24° W 20:17:41 10° NW visible
24 Dec 6.5 19:35:06 10° SSW 19:40:09 52° W 19:45:11 10° NNW visible
25 Dec 8.1 06:29:00 10° NE 06:33:08 24° E 06:37:17 10° SE visible
26 Dec 8.9 05:58:55 10° E 05:59:41 10° E 06:00:27 10° E visible
26 Dec 8.4 20:10:53 10° WSW 20:13:38 14° W 20:16:23 10° WNW visible
27 Dec 7.5 19:35:35 10° SSW 19:40:10 32° W 19:44:46 10° NNW visible
28 Dec 7.1 06:28:21 10° NNE 06:33:10 39° E 06:37:59 10° SSE visible
29 Dec 8.3 05:56:18 10° NE 05:59:42 18° E 06:03:06 10° SE visible
30 Dec 8.3 19:36:28 10° SW 19:40:11 20° W 19:43:55 10° NW visible
31 Dec 6.1 06:28:03 10° N 06:33:11 64° E 06:38:20 10° S visible
